Flag for U.S.A. Weather past 2 weeks in Pasadena, California, U.S.A.

Now
66 °F

Partly sunny.


Feels Like: 66 °F
Forecast: 54 / 71 °F
Wind: 5 mph from Southeast

Location: Burbank-Glendale-Pasadena Airport

Current Time: May 24, 2015 at 12:54:18 PM

Latest Report: May 24, 2015 at 11:53 AM


Visibility: 10 mi

Pressure: 29.98 "Hg

Humidity: 56%

Dew point: 50 °F

Location of PasadenaLocation

Historic Weather in Pasadena — Graph

°F

Pasadena temperature yesterday

Maximum temperature yesterday: 70 °F (at 3:53 PM)
Minimum temperature yesterday: 56 °F (at 5:53 AM)
Average temperature yesterday: 62 °F

Past Weeks' High & Low Weather Summary

 TemperatureHumidityPressure
High81 °F (May 11, 12:53 PM)89% (May 14, 10:53 PM)30.06 "Hg (May 14, 10:53 PM)
Low52 °F (May 15, 1:53 AM)23% (May 11, 3:53 PM)29.76 "Hg (May 11, 5:53 PM)
Average62 °F62%29.93 "Hg
* Reported May 9 10:53 AM — May 24 10:53 AM, Pasadena, Weather by CustomWeather, © 2015

Note: Actual official high and low records may vary slightly from our data, if they occured in-between our weather recording intervals... More about our weather records

Advertising

Pasadena weather history for previous 24 hours

 ConditionsComfort  
Time TempWeatherWind HumidityBarometerVisibility
10:53 AM
Sun, May 24
64 °FPartly sunny.6 mph61%29.98 "Hg10 mi
9:53 AM61 °FMostly cloudy.5 mph67%29.99 "Hg10 mi
8:53 AM60 °FOvercast.No wind69%29.99 "Hg10 mi
7:53 AM60 °FOvercast.3 mph69%29.98 "Hg10 mi
6:53 AM60 °FOvercast.No wind69%29.98 "Hg10 mi
5:53 AM59 °FOvercast.No wind72%29.96 "Hg10 mi
4:53 AM58 °FOvercast.3 mph72%29.96 "Hg10 mi
3:53 AM58 °FPassing clouds.No wind72%29.95 "Hg10 mi
2:53 AM58 °FPassing clouds.No wind75%29.96 "Hg10 mi
1:53 AM59 °FOvercast.No wind72%29.96 "Hg10 mi
12:53 AM58 °FPassing clouds.3 mph72%29.97 "Hg10 mi
11:53 PM
Sat, May 23
59 °FPassing clouds.6 mph72%29.98 "Hg10 mi
10:53 PM60 °FOvercast.5 mph69%29.99 "Hg10 mi
9:53 PM60 °FOvercast.6 mph69%30.00 "Hg10 mi
8:53 PM61 °FOvercast.8 mph65%30.00 "Hg10 mi
7:53 PM63 °FOvercast.7 mph58%29.99 "Hg10 mi
6:53 PM64 °FOvercast.9 mph58%29.97 "Hg10 mi
5:53 PM65 °FOvercast.9 mph56%29.97 "Hg10 mi
4:53 PM68 °FPartly sunny.12 mph53%29.97 "Hg10 mi
3:53 PM70 °FScattered clouds.12 mph49%29.98 "Hg10 mi
2:53 PM68 °FPartly sunny.7 mph53%30.00 "Hg10 mi
1:53 PM68 °FPartly sunny.10 mph53%30.01 "Hg10 mi
12:53 PM67 °FPartly sunny.7 mph55%30.03 "Hg10 mi
Weather by CustomWeather, © 2015

See weather overviewHow to use our weather pages